#timestamp,LO_Frequency,Hit,StdDev 
1506438015.2,286047005.1,N
1506438035.0,286047001.3,N
1506438035.9,286047001.3,N
1506438055.8,286047004.2,N
1506438075.6,286047000.4,N
1506438095.4,286047000.8,N
1506438115.3,286047000.1,N
1506438135.1,286046998.1,N
1506438155.8,286047000.4,N
1506438175.7,286047002.0,N
1506438195.5,286047005.0,N
1506438215.3,286047005.8,N
1506438235.2,286047008.3,Y
1506438255.0,286047002.9,P
1506438255.9,286047002.9,P
1506438275.7,286047005.0,P
1506438295.6,286047001.7,N
1506438315.4,286047004.4,Y
1506438335.2,286046993.4,P
1506438355.1,286046996.2,N
1506438356.0,286046996.2,N
1506438375.8,286046996.9,N
1506438395.6,286047001.1,N
1506438415.5,286047000.7,N
1506438435.3,286046997.6,N
1506438455.1,286046998.4,N
1506438475.9,286046996.8,N
1506438495.7,286046998.5,N
1506438515.5,286046997.2,N
1506438535.4,286046997.4,N
1506438555.2,286046995.0,N
1506438575.0,286046997.0,N
1506438575.9,286046997.0,N
1506438595.8,286046999.1,N
1506438615.6,286046998.1,N
1506438635.4,286046998.0,N
1506438655.2,286046995.5,N
1506438675.1,286046993.8,N
1506438676.0,286046993.8,N
1506438695.8,286046992.6,Y
1506438715.7,286046994.9,P
1506438735.5,286046999.0,N
1506438755.3,286046995.3,N
1506438775.1,286046995.8,N
1506438795.9,286046993.7,Y
1506438815.7,286046999.4,P
1506438835.5,286046999.4,N
1506438855.4,286047002.4,N
1506438875.2,286047007.2,Y
1506438895.1,286047005.5,P
1506438896.0,286047005.5,N
1506438915.8,286047005.9,N
1506438935.6,286047006.6,N
1506438955.5,286047005.1,N
1506438975.3,286047003.4,N
1506438995.1,286047003.3,N
1506439015.8,286047002.9,N
1506439035.7,286047006.5,Y
1506439055.5,286047000.4,P
1506439075.4,286047000.6,N
1506439095.2,286046999.3,N
1506439115.0,286046999.1,N
1506439115.9,286046999.1,N
1506439135.7,286047002.7,N
1506439155.6,286047000.4,N
1506439175.4,286047000.4,N
1506439195.2,286047002.1,N
1506439215.1,286047000.5,N
1506439216.0,286047000.5,N
1506439235.8,286047006.0,Y
1506439255.6,286046999.9,P
1506439275.5,286046996.5,P
1506439295.3,286046995.6,N
1506439315.1,286046995.4,N
1506439335.9,286046997.7,N
1506439355.7,286046997.4,N
1506439375.5,286046997.3,N
1506439395.4,286046999.6,N
1506439415.2,286046997.5,N
1506439435.0,286047001.5,N
1506439435.9,286047001.5,N
1506439455.8,286047001.7,N
1506439475.6,286046999.9,N
1506439495.4,286047000.9,N
1506439515.2,286046999.6,N
1506439535.1,286046999.2,N
1506439536.0,286046999.2,N
1506439555.8,286047001.0,N
1506439575.6,286046997.1,N
1506439595.5,286046996.2,N
1506439615.3,286046996.1,N
1506439635.1,286047000.8,N
1506439655.9,286047003.5,N
1506439675.7,286047004.1,N
1506439695.5,286047003.6,N
1506439715.4,286047005.1,N
1506439735.2,286047001.3,N
1506439755.0,286047000.5,N
1506439755.9,286047000.5,N
1506439775.8,286047006.3,N
1506439795.6,286047000.6,N
1506439815.4,286046996.8,N
1506439835.3,286047000.2,N
1506439855.1,286047001.6,N
1506439856.0,286047001.6,N
1506439875.8,286047004.4,N
1506439895.6,286047003.1,N
1506439915.5,286047007.6,Y
1506439935.3,286047007.3,P
1506439955.2,286047009.1,N
1506439975.9,286047008.7,N
1506439995.7,286047003.3,N
1506440015.5,286047004.5,N
1506440035.4,286047001.7,N
1506440055.2,286047002.7,N
1506440075.0,286047004.3,N
1506440075.9,286047004.3,N
1506440095.8,286047004.4,N
1506440115.6,286047005.9,N
1506440135.4,286047007.1,N
1506440155.3,286047005.2,N
1506440175.1,286047007.6,Y
1506440195.8,286046998.7,P
1506440215.7,286046998.3,N
1506440235.5,286047001.0,N
1506440255.3,286046999.4,N
1506440275.2,286046996.8,N
1506440295.9,286046997.5,N
1506440315.7,286046995.0,N
1506440335.6,286046997.6,N
1506440355.4,286046998.4,N
1506440375.2,286047000.0,N
1506440395.0,286047000.6,N
1506440395.9,286047000.6,N
1506440415.8,286046997.8,N
1506440435.6,286046999.0,N
1506440455.8,286046998.1,N
1506440475.6,286046998.6,N
1506440495.4,286046997.6,N
1506440515.3,286046996.4,N
1506440535.1,286046996.1,N
1506440555.8,286046999.3,N
1506440575.7,286046997.7,N
1506440595.5,286046997.5,N
1506440615.3,286046997.6,N
1506440635.2,286046995.0,N
1506440655.9,286046998.3,N
1506440675.7,286046998.9,N
1506440695.6,286047000.8,N
1506440715.4,286046998.6,N
1506440735.2,286046997.6,N
1506440755.1,286046995.4,N
1506440756.0,286046995.4,N
1506440775.8,286046997.6,N
1506440795.6,286047001.1,N
1506440815.5,286047004.2,N
1506440835.3,286047001.4,N
1506440855.1,286047002.0,N
1506440875.8,286046999.8,N
1506440895.7,286047002.1,N
1506440915.5,286046998.8,N
1506440935.3,286046996.8,N
1506440955.2,286046998.7,N
1506440975.9,286046996.6,N
1506440995.7,286046996.4,N
1506441015.6,286046996.3,N
1506441035.4,286046997.6,N
1506441055.2,286047000.1,N
1506441075.1,286047000.3,N
1506441076.0,286047000.3,N
1506441095.8,286047001.0,N
1506441115.6,286046998.5,N
1506441135.5,286046998.4,N
1506441155.3,286046997.0,N
1506441175.1,286046999.1,N
1506441195.8,286047000.6,N
1506441215.7,286046998.8,N
1506441235.5,286047001.2,N
1506441255.3,286046999.0,N
1506441275.2,286047002.7,N
1506441295.0,286047001.5,N
1506441295.9,286047001.5,N
1506441315.7,286047001.1,N
1506441335.6,286047001.0,N
1506441355.4,286046998.5,N
1506441375.2,286046998.8,N
1506441395.1,286046999.5,N
1506441396.0,286046999.5,N
1506441415.8,286046999.9,N
1506441435.6,286047003.2,N
1506441455.5,286047002.9,N
1506441475.3,286047000.2,N
1506441495.6,286047004.3,N
1506441515.5,286047003.2,N
1506441535.3,286047005.4,N
1506441555.1,286047003.4,N
1506441575.8,286047003.4,N
1506441595.7,286047000.0,N
